ZHUHAI-1 02 (CAS-4B) (42759 NORAD) Tracking and Keplerian Element Data

This shows tracking and keplerian element data for the satellite.

Feedback or suggestion? Click here.




ElementValue
Catalog42759
NameZHUHAI-1 02 (CAS-4B)
Epoch Orbit18495
Epoch Day295.06207722
Epoch Year2020
RAAN56.8779
Inclination43.0181
Eccentricity0.0009074
Argument of Perigee99.7506
Mean Anonmoly69.2881
Mean Motion15.09911569
Decay Rate1.37E-06
L11 42759U 17034B 20295.06207722 .00000137 00000-0 21741-4 0 9996
L22 42759 43.0181 56.8779 0009074 99.7506 69.2881 15.09911569184951

Live tracking and technical data element details for ZHUHAI-1 02 (CAS-4B) (NORAD 42759). ZHUHAI-1 02 (CAS-4B) can be tracked NOW for your location showing map with azimuth and elevation plus other details from your city location.

Track the satellite on the map from your city or location and see movement details for azimuth, elevation, latitude, longitude, range, height, and movement on the map or in text.







IsCatalogInMostPopularTable: catalog: 42759, numindb: 645
Update: records affected: 1



GetName: 42759 ZHUHAI-1 02 (CAS-4B)

Hit Count: updated at: Thu, 22 Oct 2020 03:49:30 GMT